Tracking 23099 objects as of 13-May-2021
HD Live streaming from Space Station
objects crossing your sky now

SL-19 DEB

Track SL-19 DEB now!
10-day predictions


NORAD ID: 23479
Int'l Code: 1994-085C
Perigee: 1,861.6 km
Apogee: 2,028.6 km
Inclination: 65.0 °
Period: 125.8 minutes
Semi major axis: 8316 km
RCS: 0.2064 m2 (medium)
Launch date: December 26, 1994
Source: Commonwealth of Independent States (former USSR) (CIS)
Launch site: TYURATAM MISSILE AND SPACE COMPLEX (TTMTR)

Note: This is SATELLITE DEBRIS
aabbcc
Your satellite tracking list
Your tracking list is empty




NASA's NSSDC Master Catalog

Two Line Element Set (TLE):
1 23479U 94085C   21132.56788359  .00001704  00000-0  41335-1 0  9990
2 23479  65.0457  78.9097 0100390  32.1142 140.8701 11.44785406100068
Source of the keplerian elements: AFSPC